This is the latest recevied weather packets stored in our database for station/object KI8L. If no packets are shown the sender has not sent any weather packets the latest 10 day(s).
| Time | Temp. | Humidity | Pressure | Rain* | Wind** | Luminosity | Snow |
|---|---|---|---|---|---|---|---|
| 1777694635 | 5° C | 95% | 1018.4 hPa | 0 mm | - | 0 W/m² | - |
| 1777694331 | 5° C | 95% | 1018.6 hPa | 0 mm | - | 0 W/m² | - |
| 1777694028 | 5° C | 96% | 1018.6 hPa | 0 mm | - | 0 W/m² | - |
| 1777693725 | 5° C | 98% | 1018.6 hPa | 0 mm | - | 0 W/m² | - |
| 1777693424 | 5° C | 99% | 1018.6 hPa | 0 mm | - | 0 W/m² | - |
| 1777693122 | 5° C | 99% | 1018.5 hPa | 0 mm | - | 0 W/m² | - |
| 1777692819 | 5° C | 99% | 1018.5 hPa | 0 mm | - | 0 W/m² | - |
| 1777692516 | 4.44° C | 99% | 1018.5 hPa | 0 mm | - | 0 W/m² | - |
| 1777692212 | 5° C | 99% | 1018.3 hPa | 0 mm | - | 0 W/m² | - |
| 1777691910 | 4.44° C | 99% | 1018.4 hPa | 0 mm | - | 0 W/m² | - |
| 1777691608 | 4.44° C | 99% | 1018.4 hPa | 0 mm | - | 0 W/m² | - |
| 1777691306 | 4.44° C | 99% | 1018.3 hPa | 0 mm | - | 0 W/m² | - |
| 1777691004 | 4.44° C | 99% | 1018.1 hPa | 0 mm | - | 0 W/m² | - |
| 1777690701 | 4.44° C | 99% | 1018.2 hPa | 0 mm | - | 0 W/m² | - |
| 1777690399 | 4.44° C | 99% | 1018.2 hPa | 0 mm | - | 0 W/m² | - |
| 1777690096 | 4.44° C | 99% | 1018.4 hPa | 0 mm | - | 0 W/m² | - |
| 1777689794 | 5° C | 99% | 1018.3 hPa | 0 mm | - | 0 W/m² | - |
| 1777689492 | 5° C | 99% | 1018.2 hPa | 0 mm | - | 0 W/m² | - |
| 1777689189 | 5° C | 98% | 1018.4 hPa | 0 mm | - | 0 W/m² | - |
| 1777688887 | 5° C | 97% | 1018.3 hPa | 0 mm | - | 0 W/m² | - |
| 1777688583 | 5.56° C | 95% | 1018.4 hPa | 0 mm | - | 0 W/m² | - |
| 1777688280 | 5° C | 95% | 1018.2 hPa | 0 mm | - | 0 W/m² | - |
| 1777687977 | 5° C | 97% | 1018.4 hPa | 0 mm | - | 0 W/m² | - |
| 1777674038 | 6.67° C | 81% | 1016.9 hPa | 0 mm | - | 299 W/m² | - |
| 1777673734 | 6.67° C | 81% | 1016.4 hPa | 0 mm | - | 107 W/m² | - |
* Rain latest hour (hover to see other rain measurements)
** Current wind speed in m/s (hover to see current wind gust speed)